Weather in Shadeyka

Russia / Perm Krai     57°26′58″N   56°47′48″E
temp.,
°C
wind,
m/s
gust,
m/s
humid.,
%
clouds,
%
prec.,
mm/h
press.,
hPa
HPBL,
m
1 march, mon
mon123:00−16ene599497 0.4 1012404
02:00−16ene489598 0.2 1013347
05:00−17ne379695 0.4 1015245
08:00−19ne359790 0.1 1016110
11:00−16ene349291 0.1 1018310
14:00−14e228696 0.0 1017383
17:00−13ese008698 0.0 1017283
20:00−18ssw229541 0.0 101620
2 march, tue
tue223:00−19sw339623 0.0 101523
02:00−19ssw449847 0.0 101375
05:00−18ssw5119660 0.0 1011276
08:00−18s71393100 0.0 1008364
11:00−16ssw71394100 0.4 1006461
14:00−13ssw81292100 0.6 1002601
17:00−12ssw71193100 0.9 1001612
20:00−11s61293100 0.8 999552
3 march, wed
wed323:00−10s61194100 1.4 998497
02:00−9s41095100 0.9 996446
05:00−8s3895100 2.1 995288
08:00−7ssw1297100 1.6 994100
11:00−6nw3494100 2.1 995266
14:00−4wnw238796 0.0 995482
17:00−3wnw348798 0.1 996572
20:00−6wsw3596100 0.1 996107
4 march, thu
thu423:00−6w3795100 0.6 997275
02:00−8wnw4993100 0.1 997335
05:00−13w479566 0.1 998102
08:00−15w359583 0.0 99984
11:00−9wsw488861 0.0 1000451
14:00−6wsw588568 0.0 1000764
17:00−6wsw598584 0.1 999929
20:00−11ssw479493 0.0 998117
5 march, fri
fri523:00−8s6139397 0.1 996565
02:00−7ssw71494100 0.6 992725
05:00−4ssw71394100 1.3 989663
08:00−2ssw51097100 1.4 986547
11:00−2wnw91288100 2.8 986917
14:00−5w81283100 0.1 9911088
17:00−6wnw81385100 0.2 9981083
20:00−10w51288100 0.1 1003453